Milan, Italy

6:12 PM CEST on August 20, 2017 (GMT +0200)
Malpensa

Weather History for LIMC - April, 2013

Change the Weather History Date:

Thursday, April 4, 2013

  Actual Average Record
Temperature  
Mean Temperature 48 °F -  
Max Temperature 53 °F 64 °F 75 °F (2011)
Min Temperature 44 °F 41 °F 33 °F (2003)
Degree Days  
Heating Degree Days 16    
Moisture  
Dew Point 41 °F    
Average Humidity 77    
Maximum Humidity 100    
Minimum Humidity 51    
Precipitation  
Precipitation 0.00 in 0.14 in - ()
Sea Level Pressure  
Sea Level Pressure 29.73 in    
Wind  
Wind Speed 3 mph ()    
Max Wind Speed 6 mph    
Max Gust Speed -    
Visibility 5.5 miles    
Events Rain    
Averages and records for this station are not official NWS values.
T = Trace of Precipitation, MM = Missing Value Source: Averaged Metar Reports

Daily Weather History Graph

Daily Weather History Graph

Search for Another Location

Airport or City:

Trip Planner

Search our weather history database for the weather conditions in past years. The results will help you decide how hot, cold, wet, or windy it might be!

Date:

Astronomy

Apr. 04, 2013 Rise Set
Actual Time 6:59 AM CEST 7:57 PM CEST
Civil Twilight 6:29 AM CEST 8:27 PM CEST
Nautical Twilight 5:53 AM CEST 9:03 PM CEST
Astronomical Twilight 5:15 AM CEST 9:41 PM CEST
Moon 3:32 AM CEST (4/4) 1:40 PM CEST (4/4)
Length of Visible Light 13h 58m
Length of Day
12h 57m
Last Quarter, 36% of the Moon is Illuminated
Apr 4
Last Quarter
Apr 10
New
Apr 18
First Quarter
Apr 25
Full
May 2
Last Quarter

Hourly Weather History & Observations

Time (CEST) Temp. Windchill Dew Point Humidity Pressure Visibility Wind Dir Wind Speed Gust Speed Precip Events Conditions
12:20 AM 46.4 °F 45.2 °F 42.8 °F 87% 29.74 in - ENE 3.5 mph - N/A   Clear
12:50 AM 48.2 °F - 42.8 °F 82% 29.74 in - ENE 3.5 mph - N/A   Clear
1:50 AM 48.2 °F - 42.8 °F 82% 29.74 in 6.2 mi Variable 2.3 mph - N/A   Mostly Cloudy
2:20 AM 48.2 °F - 42.8 °F 82% 29.74 in 6.2 mi Variable 2.3 mph - N/A   Mostly Cloudy
2:50 AM 48.2 °F - 41.0 °F 76% 29.74 in 6.2 mi Variable 2.3 mph - N/A   Mostly Cloudy
3:20 AM 48.2 °F - 41.0 °F 76% 29.74 in 6.2 mi Variable 2.3 mph - N/A   Mostly Cloudy
3:50 AM 46.4 °F - 41.0 °F 81% 29.74 in 6.2 mi Variable 2.3 mph - N/A   Mostly Cloudy
4:20 AM 46.4 °F - 41.0 °F 81% 29.74 in 6.2 mi Variable 1.2 mph - N/A   Mostly Cloudy
4:50 AM 46.4 °F - 41.0 °F 81% 29.74 in 6.2 mi Variable 2.3 mph - N/A   Mostly Cloudy
5:20 AM 46.4 °F - 41.0 °F 81% 29.74 in 6.2 mi Variable 1.2 mph - N/A   Mostly Cloudy
5:50 AM 46.4 °F - 41.0 °F 81% 29.74 in 6.2 mi Variable 2.3 mph - N/A   Mostly Cloudy
6:20 AM 46.4 °F - 39.2 °F 76% 29.74 in 6.2 mi Variable 2.3 mph - N/A   Mostly Cloudy
6:50 AM 46.4 °F - 39.2 °F 76% 29.74 in 6.2 mi Variable 2.3 mph - N/A   Mostly Cloudy
7:20 AM 46.4 °F 45.2 °F 41.0 °F 81% 29.74 in 6.2 mi NNW 3.5 mph - N/A Rain Rain
7:50 AM 46.4 °F 45.2 °F 41.0 °F 81% 29.74 in 6.2 mi North 3.5 mph - N/A Rain Rain
8:20 AM 46.4 °F 45.2 °F 42.8 °F 87% 29.77 in 6.2 mi North 3.5 mph - N/A   Overcast
8:50 AM 46.4 °F 45.2 °F 42.8 °F 87% 29.77 in 6.2 mi North 3.5 mph - N/A Rain Light Rain
9:20 AM 46.4 °F 44.3 °F 42.8 °F 87% 29.77 in 6.2 mi North 4.6 mph - N/A Rain Light Rain
9:50 AM 48.2 °F - 44.6 °F 87% 29.77 in 6.2 mi NW 5.8 mph - N/A   Overcast
10:20 AM 48.2 °F - 41.0 °F 76% 29.77 in 6.2 mi North 3.5 mph - N/A   Overcast
10:50 AM 50.0 °F - 37.4 °F 62% 29.77 in 6.2 mi Variable 2.3 mph - N/A   Overcast
11:20 AM 50.0 °F - 37.4 °F 62% 29.77 in 6.2 mi Variable 3.5 mph - N/A   Mostly Cloudy
11:50 AM 51.8 °F - 37.4 °F 58% 29.77 in 6.2 mi Variable 3.5 mph - N/A   Mostly Cloudy
12:20 PM 51.8 °F - 37.4 °F 58% 29.74 in 6.2 mi Variable 3.5 mph - N/A   Mostly Cloudy
12:50 PM 53.6 °F - 37.4 °F 54% 29.74 in 6.2 mi Variable 2.3 mph - N/A   Overcast
1:20 PM 53.6 °F - 37.4 °F 54% 29.74 in 6.2 mi SE 3.5 mph - N/A   Overcast
1:50 PM 51.8 °F - 35.6 °F 54% 29.74 in 6.2 mi SSE 3.5 mph - N/A   Overcast
2:20 PM 53.6 °F - 35.6 °F 51% 29.74 in 6.2 mi SE 3.5 mph - N/A   Overcast
2:50 PM 53.6 °F - 37.4 °F 54% 29.71 in 6.2 mi Variable 3.5 mph - N/A   Overcast
3:20 PM 53.6 °F - 37.4 °F 54% 29.71 in 6.2 mi ESE 3.5 mph - N/A   Overcast
3:50 PM 53.6 °F - 37.4 °F 54% 29.71 in 6.2 mi East 3.5 mph - N/A   Overcast
4:20 PM 51.8 °F - 39.2 °F 62% 29.71 in 6.2 mi SE 3.5 mph - N/A   Overcast
5:20 PM 48.2 °F - 44.6 °F 87% 29.71 in 3.1 mi Variable 2.3 mph - N/A Rain Rain
5:50 PM 48.2 °F - 46.4 °F 93% 29.71 in 3.1 mi South 3.5 mph - N/A Rain Light Rain
6:20 PM 48.2 °F - 44.6 °F 87% 29.71 in 5.0 mi Variable 2.3 mph - N/A   Light Drizzle
6:50 PM 48.2 °F - 44.6 °F 87% 29.71 in 5.0 mi Variable 2.3 mph - N/A   Light Drizzle
7:20 PM 48.2 °F - 46.4 °F 93% 29.71 in 3.1 mi Variable 1.2 mph - N/A Rain Light Rain
7:50 PM 48.2 °F - 44.6 °F 87% 29.71 in 3.7 mi South 3.5 mph - N/A Rain Light Rain
8:20 PM 48.2 °F - 46.4 °F 93% 29.71 in 3.7 mi East 3.5 mph - N/A   Overcast
8:50 PM 48.2 °F - 46.4 °F 93% 29.71 in 3.7 mi Variable 2.3 mph - N/A   Drizzle
9:20 PM 48.2 °F - 42.8 °F 82% 29.71 in 4.3 mi East 3.5 mph - N/A   Drizzle
9:50 PM 46.4 °F 45.2 °F 42.8 °F 87% 29.71 in 4.3 mi East 3.5 mph - N/A Rain Rain
10:20 PM 46.4 °F 45.2 °F 42.8 °F 87% 29.71 in 4.3 mi East 3.5 mph - N/A Rain Rain
10:50 PM 46.4 °F 45.2 °F 42.8 °F 87% 29.71 in 4.3 mi ESE 3.5 mph - N/A Rain Rain
11:20 PM 44.6 °F - 42.8 °F 93% 29.71 in 4.3 mi Variable 1.2 mph - N/A Rain Rain
11:50 PM 44.6 °F - 44.6 °F 100% 29.71 in 3.7 mi Variable 2.3 mph - N/A Rain Rain